Regional Weather Roundup
Issued by NWS Grand Forks, ND

Home | Current Version | Previous Version | Text Only | Print | Product List | Glossary Off
Versions: 1 2 3 4 5 6 7 8 9 10 11 12 13 14 15 16 17 18 19 20 21 22 23 24 25 26 27 28 29 30 31 32 33 34 35 36 37 38 39 40 41 42 43 44 45 46 47 48 49 50

000
ASUS43 KFGF 032010
RWRFGF
PRAIRIE TO PINES  WEATHER ROUNDUP
NATIONAL WEATHER SERVICE EASTERN NORTH DAKOTA/GRAND FORKS ND
300 PM CDT TUE MAY 03 2016

 **SATELLITE DATA USED TO AUGMENT SKY COVER AT AUTOMATED STATIONS**
 *****  WEATHER ACROSS EASTERN NORTH DAKOTA  *****

CITY           SKY/WX    TMP DP  RH WIND       PRES   REMARKS
GRAND FORKS    SUNNY     67  31  26 N24G53    29.89R
GRAND FRKS AFB SUNNY     67  28  23 N26G38    29.90S
DEVILS LAKE    SUNNY     66  27  23 N22G31    29.95S
FARGO          SUNNY     71  27  19 N30G39    29.84S
WAHPETON ARPT  CLEAR     72  19  14 N29G39    29.82R
$$

 ***** WEATHER ACROSS CENTRAL AND WESTERN NORTH DAKOTA  *****

CITY           SKY/WX    TMP DP  RH WIND       PRES   REMARKS
BISMARCK       SUNNY     76  38  25 N21G31    29.97S
MINOT          SUNNY     78  31  17 N16G28    30.00F
JAMESTOWN      SUNNY     70  26  19 N23G35    29.92R
MINOT AFB      SUNNY     73  35  24 N16G29    30.00S
GARRISON         N/A     75  35  23 N17G32    30.00S
WILLISTON      SUNNY     80  38  22 N14       30.03F
DICKINSON      SUNNY     74  35  24 NW20G26   30.03S
HETTINGER      SUNNY     75  35  23 NW14G22   30.05F
$$

 *****  OTHER AIRPORT OBSERVATIONS IN OUR AREA  *****

CITY           SKY/WX    TMP DP  RH WIND       PRES   REMARKS
WALHALLA       FAIR      63  28  27 N23G35    29.96S
GRAFTON AIRPOR FAIR      64  32  29 NW22G37   29.92S
VALLEY CITY AR FAIR      68  28  22 N21G30    29.92S
CANDO          FAIR      68  27  21 N20G30    29.99F
CAVALIER APRT  FAIR      63  30  29 N21G36    29.94R
GWINNER        FAIR      73  30  20 NW24G33   29.87R
SHEYENNE NWR     N/A     71  25  18 N15       29.95
ROLLA          FAIR      64  23  20 N20G30    30.00S
 ***** THE ABOVE OBSERVATIONS ARE NON NWS ARE NOT QUALITY
       CONTROLLED AND MAY MIS-REPORT RAIN FOR SNOW...
$$

  *****  WEATHER ACROSS NORTHERN MINNESOTA  *****

CITY           SKY/WX    TMP DP  RH WIND       PRES   REMARKS
FLAG ISLAND    MOSUNNY   55  32  41 N20G28    29.84R
WARROAD        MOSUNNY   63  34  34 NW16G30   29.85R
ROSEAU         SUNNY     64  27  24 N22       29.85S
HALLOCK        SUNNY     64  21  19 N24G31    29.90R
THF RVR FALLS  SUNNY     63  27  25 NW25      29.87F
BAUDETTE       SUNNY     61  30  31 N22G28    29.83R
WASKISH        SUNNY     63  28  27 NW15G26   29.81R
CROOKSTON      SUNNY     66  30  26 N28G37    29.87S
STEPHEN NDAWN    N/A     66  25  20 N23         N/A
GREENBUSH NDAW   N/A     63  30  29 N20         N/A
$$
  *****  WEATHER ACROSS CENTRAL AND WEST MINNESOTA  *****

CITY           SKY/WX    TMP DP  RH WIND       PRES   REMARKS
FOSSTON        SUNNY     64  25  22 N25G33    29.84R
BEMIDJI        SUNNY     64  26  24 NW20G31   29.79R
PARK RAPIDS    SUNNY     68  24  19 N24G31    29.76R
ELBOW LAKE     FAIR      69  30  23 NW24G35   29.78S
WADENA         SUNNY     70  30  23 N18G26    29.75S
DETROIT LAKES  SUNNY     66  28  24 N16G37    29.82R
MOORHEAD       SUNNY     70  25  18 N31G38    29.84S
FERGUS FALLS   SUNNY     70  30  23 N24G35    29.77R
MORRIS MN      MOSUNNY   75  37  25 NW29G40   29.75F
STAPLES        SUNNY     70  25  18 N20G31    29.73R
$$
  *****  WEATHER ELSEWHERE ACROSS MINNESOTA  *****

CITY           SKY/WX    TMP DP  RH WIND       PRES   REMARKS
DULUTH         PTSUNNY   65  29  25 NW21G26   29.67R
INTRNTL FALLS  PTSUNNY   62  30  29 N17G24    29.77R
ELY            MOSUNNY   61  28  29 NW12G30   29.68R
CLOQUET        PTSUNNY   70  25  18 N17       29.68R
WHEATON        SUNNY     75  37  25 NW25G36   29.81R
BRAINERD       MOSUNNY   69  32  25 N21G30    29.71F
HIBBING        MOSUNNY   66  30  26 NW18G33   29.69S
ALEXANDRIA     MOSUNNY   73  37  27 NW21G31   29.76F
SAINT CLOUD    CLOUDY    69  40  34 W21G28    29.73F
MINNEAPOLIS    PTSUNNY   71  39  31 W15G30    29.75F
$$

  *****  WEATHER ACROSS SOUTH DAKOTA  *****

CITY           SKY/WX    TMP DP  RH WIND       PRES   REMARKS
SIOUX FALLS    PTSUNNY   69  45  41 W16G33    29.90F
BROOKINGS      MOSUNNY   70  41  34 NW16G26   29.87F
WATERTOWN      MOSUNNY   71  40  32 NW18G30   29.85F
HURON          SUNNY     73  42  32 NW20G28   29.90F
SISSETON         N/A     76  36  23 N30G40    29.80S
ABERDEEN       SUNNY     77  38  24 NW24G32   29.87F
MITCHELL       SUNNY     71  46  40 NW24G30   29.93F
PIERRE         SUNNY     73  41  31 NW18G25   29.97F
MOBRIDGE       SUNNY     79  40  24 N18G25    29.93F
RAPID CITY     SUNNY     72  41  32 N21       30.08F
$$

  *****  SOME WEATHER IN NEARBY STATES *****

CITY           SKY/WX    TMP DP  RH WIND       PRES   REMARKS
GLASGOW MT     SUNNY     78  37  22 E5        30.07F
GREAT FALLS MT SUNNY     76  32  20 SW5       30.09F
CHEYENNE WY    MOSUNNY   59  32  36 NW20      30.23F
SCOTTSBLUFF NE SUNNY     71  33  24 N20       30.12F
OMAHA NE       PTSUNNY   70  41  34 W13       29.98F
DES MOINES IA  PTSUNNY   68  37  32 W17G25    29.94F
DAVENPORT IA   CLOUDY    65  39  38 W21       29.90F
CHICAGO IL     PTSUNNY   65  38  36 W13       29.84F
EAU CLAIRE WI  PTSUNNY   67  35  30 W20G29    29.72F
LA CROSSE WI   CLOUDY    70  36  28 W22       29.77F
$$

  *****  SOME NATIONAL WEATHER *****

CITY           SKY/WX    TMP DP  RH WIND       PRES   REMARKS
LA GUARDIA NY  CLOUDY    54  51  90 NE12      29.81F FOG
RALEIGH NC     PTSUNNY   78  63  59 W6        29.75F
ATLANTA GA     PTSUNNY   76  59  55 NW18      29.85F
NEW ORLEANS LA PTSUNNY   76  66  71 NW9       29.92F
OKLAHOMA CITY  PTSUNNY   70  44  39 VRB7      30.06F
ALBUQUERQUE NM MOSUNNY   69  24  18 VRB7      30.18F
SALT LAKE CITY MOSUNNY   71  33  24 NW8       30.20F
LOS ANGELES CA PTSUNNY   67  54  63 SW8       29.95F
BOISE ID       SUNNY     78  28  16 S12G23    30.11F
SEATTLE WA     PTSUNNY   68  51  54 S9        30.05F
$$

*** WEATHER ACROSS MANITOBA...SASKATCHEWAN AND ONTARIO ***
                ***ONTARIO***

CITY           SKY/WX    TMP DP  RH WIND       PRES   REMARKS
GERALDTON      PTSUNNY   46  39  76 NW16G25   29.62R
THUNDER BAY    PTSUNNY   61  30  31 N16G29    29.62R
SIOUX LOOKOUT  PTSUNNY   50  34  53 N9G23     29.82R
TORONTO        PTSUNNY   52  39  62 S6        29.82F
BIG TROUT LK   CLOUDY    41  32  70 N17G29    29.84R
PICKLE LAKE    PTSUNNY   41  34  75 N7G18     29.79R
DRYDEN         MOSUNNY   55  34  44 N14G26    29.81R
KENORA         MOSUNNY   59  34  38 N10G23    29.85R
$$
                *** MANITOBA***

CITY           SKY/WX    TMP DP  RH WIND       PRES   REMARKS
BRANDON        SUNNY     66  28  24 N17G26    30.02R
DAUPHIN        SUNNY     61  28  29 NE20G28   30.05F
ISLAND LAKE    PTSUNNY   43  32  65 NW14      30.02R
PILOT MOUND    NOT AVBL
THE PAS        MOSUNNY   57  28  33 NE8       30.08F
THOMPSON       SUNNY     54  23  30 N15G22    30.06F
WINNIPEG       MOSUNNY   61  36  39 N20G32    29.96R
LYNN LAKE      SUNNY     54  27  35 VRB6      30.08F
CHURCHILL      PTSUNNY   27  19  74 N16       30.17F WCI  14
GILLAM         MOSUNNY   37  25  60 N13       30.10S
$$
                ***SASKATCHEWAN***

CITY           SKY/WX    TMP DP  RH WIND       PRES   REMARKS
ESTEVAN        MOSUNNY   79  39  24 N16G25    30.03F
KINDERSLEY     PTSUNNY   82  36  18 S10G22    30.01F
LLOYDMINSTER   MOSUNNY   82  39  21 S13G23    29.97F
PRINCE ALBERT  CLOUDY    73  36  25 SE10G18   30.02F
REGINA         MOSUNNY   79  39  24 N7        30.04S
YORKTON        SUNNY     70  30  23 NW12G20   30.06S
N. BATTLEFORD  SUNNY     84  36  17 W5        29.99F
LA RONGE       NOT AVBL
SASKATOON      PTSUNNY   82  37  20 W5        30.01F
SWIFT CURRENT  SUNNY     79  36  21 VRB10     30.04F
$$
NOTE: THESE ARE AUTOMATED STATIONS WITH LIMITED QUALITY CONTROL
      "FAIR" INDICATES FEW OR NO CLOUDS BELOW 12,000 FEET WITH NO
      SIGNIFICANT WEATHER AND/OR OBSTRUCTIONS TO VISIBILITY.
      SKY/WX - SKY CONDITION AND SIGNIFICANT WEATHER.
      TMP - AIR TEMPERATURE.    DP   - DEWPOINT TEMPERATURE.
      RH  - RELATIVE HUMIDITY.  PRES - PRESSURE.
      HX  - HEAT INDEX.         WCI  - WIND CHILL INDEX.
$




USA.gov is the U.S. government's official web portal to all federal, state and local government web resources and services.